﻿測定場所 (Monitoring sites),日付 (Measurement date),時間 (Measurement time),線量率 最大値 (max) μGy/h,線量率 最小値 (min) μGy/h,線量率 平均値 (average) μGy/h,
江戸川 (Edogawa),2012-04-22,23:01～24:00,0.128,0.116,0.122,
江戸川 (Edogawa),2012-04-22,22:01～23:00,0.129,0.116,0.122,
江戸川 (Edogawa),2012-04-22,21:01～22:00,0.130,0.115,0.122,
江戸川 (Edogawa),2012-04-22,20:01～21:00,0.131,0.113,0.122,
江戸川 (Edogawa),2012-04-22,19:01～20:00,0.131,0.116,0.122,
江戸川 (Edogawa),2012-04-22,18:01～19:00,0.127,0.117,0.122,
江戸川 (Edogawa),2012-04-22,17:01～18:00,0.128,0.116,0.121,
江戸川 (Edogawa),2012-04-22,16:01～17:00,0.130,0.112,0.120,
江戸川 (Edogawa),2012-04-22,15:01～16:00,0.128,0.114,0.120,
江戸川 (Edogawa),2012-04-22,14:01～15:00,0.127,0.114,0.120,
江戸川 (Edogawa),2012-04-22,13:01～14:00,0.125,0.114,0.119,
江戸川 (Edogawa),2012-04-22,12:01～13:00,0.128,0.115,0.120,
江戸川 (Edogawa),2012-04-22,11:01～12:00,0.127,0.114,0.120,
江戸川 (Edogawa),2012-04-22,10:01～11:00,0.129,0.115,0.121,
江戸川 (Edogawa),2012-04-22,09:01～10:00,0.128,0.114,0.121,
江戸川 (Edogawa),2012-04-22,08:01～09:00,0.130,0.114,0.121,
江戸川 (Edogawa),2012-04-22,07:01～08:00,0.128,0.115,0.121,
江戸川 (Edogawa),2012-04-22,06:01～07:00,0.128,0.111,0.121,
江戸川 (Edogawa),2012-04-22,05:01～06:00,0.127,0.114,0.120,
江戸川 (Edogawa),2012-04-22,04:01～05:00,0.127,0.113,0.120,
江戸川 (Edogawa),2012-04-22,03:01～04:00,0.126,0.113,0.121,
江戸川 (Edogawa),2012-04-22,02:01～03:00,0.128,0.114,0.120,
江戸川 (Edogawa),2012-04-22,01:01～02:00,0.127,0.113,0.120,
江戸川 (Edogawa),2012-04-22,00:01～01:00,0.127,0.115,0.120,
江戸川 (Edogawa),2012-04-21,23:01～24:00,0.126,0.115,0.121,
江戸川 (Edogawa),2012-04-21,22:01～23:00,0.128,0.113,0.121,
江戸川 (Edogawa),2012-04-21,21:01～22:00,0.127,0.112,0.120,
江戸川 (Edogawa),2012-04-21,20:01～21:00,0.126,0.113,0.120,
江戸川 (Edogawa),2012-04-21,19:01～20:00,0.127,0.113,0.120,
江戸川 (Edogawa),2012-04-21,18:01～19:00,0.127,0.115,0.120,
江戸川 (Edogawa),2012-04-21,17:01～18:00,0.130,0.115,0.121,
江戸川 (Edogawa),2012-04-21,16:01～17:00,0.128,0.115,0.121,
江戸川 (Edogawa),2012-04-21,15:01～16:00,0.130,0.116,0.122,
江戸川 (Edogawa),2012-04-21,14:01～15:00,0.127,0.112,0.120,
江戸川 (Edogawa),2012-04-21,13:01～14:00,0.126,0.116,0.121,
江戸川 (Edogawa),2012-04-21,12:01～13:00,0.132,0.116,0.122,
江戸川 (Edogawa),2012-04-21,11:01～12:00,0.127,0.114,0.122,
江戸川 (Edogawa),2012-04-21,10:01～11:00,0.127,0.114,0.120,
江戸川 (Edogawa),2012-04-21,09:01～10:00,0.126,0.116,0.121,
江戸川 (Edogawa),2012-04-21,08:01～09:00,0.127,0.116,0.121,
江戸川 (Edogawa),2012-04-21,07:01～08:00,0.128,0.113,0.120,
江戸川 (Edogawa),2012-04-21,06:01～07:00,0.127,0.114,0.120,
江戸川 (Edogawa),2012-04-21,05:01～06:00,0.127,0.112,0.121,
江戸川 (Edogawa),2012-04-21,04:01～05:00,0.127,0.114,0.120,
江戸川 (Edogawa),2012-04-21,03:01～04:00,0.128,0.112,0.120,
江戸川 (Edogawa),2012-04-21,02:01～03:00,0.129,0.113,0.121,
江戸川 (Edogawa),2012-04-21,01:01～02:00,0.127,0.113,0.121,
江戸川 (Edogawa),2012-04-21,00:01～01:00,0.127,0.114,0.120,
江戸川 (Edogawa),2012-04-20,23:01～24:00,0.128,0.110,0.120,
江戸川 (Edogawa),2012-04-20,22:01～23:00,0.126,0.111,0.121,
江戸川 (Edogawa),2012-04-20,21:01～22:00,0.127,0.113,0.120,
江戸川 (Edogawa),2012-04-20,20:01～21:00,0.126,0.115,0.120,
江戸川 (Edogawa),2012-04-20,19:01～20:00,0.127,0.113,0.120,
江戸川 (Edogawa),2012-04-20,18:01～19:00,0.127,0.114,0.120,
江戸川 (Edogawa),2012-04-20,17:01～18:00,0.128,0.114,0.121,
江戸川 (Edogawa),2012-04-20,16:01～17:00,0.130,0.114,0.121,
江戸川 (Edogawa),2012-04-20,15:01～16:00,0.130,0.115,0.121,
江戸川 (Edogawa),2012-04-20,14:01～15:00,0.127,0.114,0.121,
江戸川 (Edogawa),2012-04-20,13:01～14:00,0.128,0.114,0.121,
江戸川 (Edogawa),2012-04-20,12:01～13:00,0.127,0.115,0.122,
江戸川 (Edogawa),2012-04-20,11:01～12:00,0.128,0.114,0.122,
江戸川 (Edogawa),2012-04-20,10:01～11:00,0.131,0.115,0.122,
江戸川 (Edogawa),2012-04-20,09:01～10:00,0.127,0.115,0.122,
江戸川 (Edogawa),2012-04-20,08:01～09:00,0.126,0.112,0.120,
江戸川 (Edogawa),2012-04-20,07:01～08:00,0.127,0.114,0.120,
江戸川 (Edogawa),2012-04-20,06:01～07:00,0.127,0.115,0.120,
江戸川 (Edogawa),2012-04-20,05:01～06:00,0.125,0.115,0.120,
江戸川 (Edogawa),2012-04-20,04:01～05:00,0.128,0.114,0.121,
江戸川 (Edogawa),2012-04-20,03:01～04:00,0.126,0.113,0.120,
江戸川 (Edogawa),2012-04-20,02:01～03:00,0.126,0.116,0.120,
江戸川 (Edogawa),2012-04-20,01:01～02:00,0.126,0.113,0.120,
江戸川 (Edogawa),2012-04-20,00:01～01:00,0.125,0.114,0.120,
江戸川 (Edogawa),2012-04-19,23:01～24:00,0.127,0.114,0.120,
江戸川 (Edogawa),2012-04-19,22:01～23:00,0.127,0.114,0.120,
江戸川 (Edogawa),2012-04-19,21:01～22:00,0.127,0.116,0.120,
江戸川 (Edogawa),2012-04-19,20:01～21:00,0.128,0.116,0.122,
江戸川 (Edogawa),2012-04-19,19:01～20:00,0.129,0.115,0.121,
江戸川 (Edogawa),2012-04-19,18:01～19:00,0.127,0.115,0.122,
江戸川 (Edogawa),2012-04-19,17:01～18:00,0.127,0.113,0.122,
江戸川 (Edogawa),2012-04-19,16:01～17:00,0.125,0.111,0.117,
江戸川 (Edogawa),2012-04-19,15:01～16:00,0.122,0.108,0.115,
江戸川 (Edogawa),2012-04-19,14:01～15:00,0.124,0.111,0.117,
江戸川 (Edogawa),2012-04-19,13:01～14:00,0.122,0.110,0.116,
江戸川 (Edogawa),2012-04-19,12:01～13:00,0.124,0.109,0.115,
江戸川 (Edogawa),2012-04-19,11:01～12:00,0.123,0.108,0.116,
江戸川 (Edogawa),2012-04-19,10:01～11:00,0.124,0.110,0.116,
江戸川 (Edogawa),2012-04-19,09:01～10:00,0.122,0.110,0.116,
江戸川 (Edogawa),2012-04-19,08:01～09:00,0.121,0.109,0.114,
江戸川 (Edogawa),2012-04-19,07:01～08:00,0.125,0.110,0.119,
江戸川 (Edogawa),2012-04-19,06:01～07:00,0.126,0.114,0.120,
江戸川 (Edogawa),2012-04-19,05:01～06:00,0.127,0.112,0.120,
江戸川 (Edogawa),2012-04-19,04:01～05:00,0.131,0.115,0.120,
江戸川 (Edogawa),2012-04-19,03:01～04:00,0.126,0.114,0.120,
江戸川 (Edogawa),2012-04-19,02:01～03:00,0.126,0.115,0.120,
江戸川 (Edogawa),2012-04-19,01:01～02:00,0.127,0.115,0.120,
江戸川 (Edogawa),2012-04-19,00:01～01:00,0.127,0.116,0.120,
江戸川 (Edogawa),2012-04-18,23:01～24:00,0.126,0.110,0.119,
江戸川 (Edogawa),2012-04-18,22:01～23:00,0.131,0.113,0.120,
江戸川 (Edogawa),2012-04-18,21:01～22:00,0.129,0.115,0.120,
江戸川 (Edogawa),2012-04-18,20:01～21:00,0.127,0.114,0.121,
江戸川 (Edogawa),2012-04-18,19:01～20:00,0.126,0.114,0.120,
江戸川 (Edogawa),2012-04-18,18:01～19:00,0.130,0.115,0.121,
江戸川 (Edogawa),2012-04-18,17:01～18:00,0.127,0.115,0.121,
江戸川 (Edogawa),2012-04-18,16:01～17:00,0.128,0.112,0.120,
江戸川 (Edogawa),2012-04-18,15:01～16:00,0.127,0.112,0.120,
江戸川 (Edogawa),2012-04-18,14:01～15:00,0.128,0.113,0.120,
江戸川 (Edogawa),2012-04-18,13:01～14:00,0.128,0.115,0.120,
江戸川 (Edogawa),2012-04-18,12:01～13:00,0.127,0.115,0.121,
江戸川 (Edogawa),2012-04-18,11:01～12:00,0.125,0.113,0.120,
江戸川 (Edogawa),2012-04-18,10:01～11:00,0.128,0.113,0.120,
江戸川 (Edogawa),2012-04-18,09:01～10:00,0.126,0.112,0.120,
江戸川 (Edogawa),2012-04-18,08:01～09:00,0.125,0.113,0.120,
江戸川 (Edogawa),2012-04-18,07:01～08:00,0.127,0.114,0.120,
江戸川 (Edogawa),2012-04-18,06:01～07:00,0.127,0.112,0.118,
江戸川 (Edogawa),2012-04-18,05:01～06:00,0.124,0.111,0.118,
江戸川 (Edogawa),2012-04-18,04:01～05:00,0.125,0.111,0.118,
江戸川 (Edogawa),2012-04-18,03:01～04:00,0.127,0.111,0.119,
江戸川 (Edogawa),2012-04-18,02:01～03:00,0.126,0.111,0.118,
江戸川 (Edogawa),2012-04-18,01:01～02:00,0.127,0.113,0.119,
江戸川 (Edogawa),2012-04-18,00:01～01:00,0.125,0.112,0.119,
江戸川 (Edogawa),2012-04-17,23:01～24:00,0.125,0.113,0.119,
江戸川 (Edogawa),2012-04-17,22:01～23:00,0.126,0.114,0.119,
江戸川 (Edogawa),2012-04-17,21:01～22:00,0.128,0.116,0.121,
江戸川 (Edogawa),2012-04-17,20:01～21:00,0.137,0.118,0.128,
江戸川 (Edogawa),2012-04-17,19:01～20:00,0.136,0.117,0.126,
江戸川 (Edogawa),2012-04-17,18:01～19:00,0.130,0.118,0.124,
江戸川 (Edogawa),2012-04-17,17:01～18:00,0.129,0.118,0.124,
江戸川 (Edogawa),2012-04-17,16:01～17:00,0.130,0.113,0.122,
江戸川 (Edogawa),2012-04-17,15:01～16:00,0.129,0.115,0.121,
江戸川 (Edogawa),2012-04-17,14:01～15:00,0.128,0.114,0.122,
江戸川 (Edogawa),2012-04-17,13:01～14:00,0.129,0.118,0.122,
江戸川 (Edogawa),2012-04-17,12:01～13:00,0.128,0.115,0.121,
江戸川 (Edogawa),2012-04-17,11:01～12:00,0.128,0.113,0.122,
江戸川 (Edogawa),2012-04-17,10:01～11:00,0.128,0.116,0.122,
江戸川 (Edogawa),2012-04-17,09:01～10:00,0.129,0.114,0.121,
江戸川 (Edogawa),2012-04-17,08:01～09:00,0.127,0.116,0.121,
江戸川 (Edogawa),2012-04-17,07:01～08:00,0.129,0.112,0.120,
江戸川 (Edogawa),2012-04-17,06:01～07:00,0.126,0.111,0.120,
江戸川 (Edogawa),2012-04-17,05:01～06:00,0.126,0.112,0.120,
江戸川 (Edogawa),2012-04-17,04:01～05:00,0.129,0.114,0.121,
江戸川 (Edogawa),2012-04-17,03:01～04:00,0.126,0.115,0.120,
江戸川 (Edogawa),2012-04-17,02:01～03:00,0.128,0.115,0.120,
江戸川 (Edogawa),2012-04-17,01:01～02:00,0.127,0.114,0.120,
江戸川 (Edogawa),2012-04-17,00:01～01:00,0.127,0.114,0.120,
江戸川 (Edogawa),2012-04-16,23:01～24:00,0.127,0.115,0.120,
江戸川 (Edogawa),2012-04-16,22:01～23:00,0.126,0.113,0.120,
江戸川 (Edogawa),2012-04-16,21:01～22:00,0.128,0.115,0.120,
江戸川 (Edogawa),2012-04-16,20:01～21:00,0.128,0.114,0.121,
江戸川 (Edogawa),2012-04-16,19:01～20:00,0.127,0.115,0.120,
江戸川 (Edogawa),2012-04-16,18:01～19:00,0.128,0.114,0.121,
江戸川 (Edogawa),2012-04-16,17:01～18:00,0.128,0.116,0.122,
江戸川 (Edogawa),2012-04-16,16:01～17:00,0.127,0.113,0.121,
江戸川 (Edogawa),2012-04-16,15:01～16:00,0.128,0.113,0.121,
江戸川 (Edogawa),2012-04-16,14:01～15:00,0.127,0.117,0.122,
江戸川 (Edogawa),2012-04-16,13:01～14:00,0.129,0.113,0.121,
江戸川 (Edogawa),2012-04-16,12:01～13:00,0.128,0.115,0.121,
江戸川 (Edogawa),2012-04-16,11:01～12:00,0.127,0.116,0.122,
江戸川 (Edogawa),2012-04-16,10:01～11:00,0.129,0.116,0.122,
江戸川 (Edogawa),2012-04-16,09:01～10:00,0.129,0.114,0.120,
江戸川 (Edogawa),2012-04-16,08:01～09:00,0.126,0.115,0.120,
江戸川 (Edogawa),2012-04-16,07:01～08:00,0.128,0.112,0.120,
江戸川 (Edogawa),2012-04-16,06:01～07:00,0.124,0.114,0.119,
江戸川 (Edogawa),2012-04-16,05:01～06:00,0.127,0.110,0.118,
江戸川 (Edogawa),2012-04-16,04:01～05:00,0.129,0.112,0.119,
江戸川 (Edogawa),2012-04-16,03:01～04:00,0.126,0.112,0.118,
江戸川 (Edogawa),2012-04-16,02:01～03:00,0.126,0.113,0.119,
江戸川 (Edogawa),2012-04-16,01:01～02:00,0.126,0.112,0.119,
江戸川 (Edogawa),2012-04-16,00:01～01:00,0.127,0.110,0.118,
